This demonstration page uses our WeatherBlox Daily Observations layout. Learn more.

Left ArrowRight Arrow

44.8408, -93.29828

Hourly Observations for April 4, 2017

Temp ( °F °C ) Dew Point ( °F °C ) Humidity (%) Winds ( mph kmh ) Pressure ( in mb ) Visibility ( mi km ) Precip ( " mm )
12:53 am 00:53 Cloudy 47 8.3 43 6.1 86 86 N 7 11 29.65 1004 10 16 0.00 0.03
1:53 am 01:53 Cloudy 47 8.3 42 5.6 83 83 N 9 15 29.65 1004 10 16 0.00 0.00
2:53 am 02:53 Cloudy 47 8.3 41 5 80 80 N 10 17 29.67 1005 10 16 0.00 0.00
3:53 am 03:53 Mostly Cloudy 46 7.8 40 4.4 79 79 N 9 15 29.68 1005 10 16 0.00 0.00
4:53 am 04:53 Partly Cloudy 46 7.8 40 4.4 79 79 N 9 15 29.70 1006 10 16 0.00 0.00
5:53 am 05:53 Cloudy 45 7.2 39 3.9 80 80 N 10 17 29.73 1007 10 16 0.00 0.00
6:53 am 06:53 Cloudy 44 6.7 39 3.9 83 83 N 7 11 29.77 1008 10 16 0.00 0.00
7:53 am 07:53 Cloudy 46 7.8 37 2.8 71 71 N 9 15 29.78 1009 10 16 0.00 0.00
8:53 am 08:53 Mostly Cloudy 48 8.9 36 2.2 63 63 N 9 15 29.79 1009 10 16 0.00 0.00
9:53 am 09:53 Mostly Cloudy 51 10.6 34 1.1 52 52 NNE 13 20 29.81 1010 10 16 0.00 0.00
10:53 am 10:53 Mostly Cloudy 56 13.3 32 0 40 40 NNE 8 13 29.85 1011 10 16 0.00 0.00
11:53 am 11:53 Mostly Cloudy 58 14.4 28 -2.2 32 32 NNE 13 20 29.88 1012 10 16 0.00 0.00
12:53 pm 12:53 Mostly Cloudy 60 15.6 27 -2.8 28 28 N 6 9 29.88 1012 10 16 0.00 0.00
1:53 pm 13:53 Mostly Cloudy 62 16.7 25 -3.9 24 24 N 12 19 29.89 1012 10 16 0.00 0.00
2:53 pm 14:53 Partly Cloudy 61 16.1 22 -5.6 22 22 N 14 22 29.88 1012 10 16 0.00 0.00
3:53 pm 15:53 Partly Cloudy 62 16.7 23 -5 22 22 NNE 13 20 29.88 1012 10 16 0.00 0.00
4:53 pm 16:53 Partly Cloudy 62 16.7 20 -6.7 20 20 NNE 10 17 29.88 1012 10 16 0.00 0.00
5:53 pm 17:53 Mostly Cloudy 61 16.1 20 -6.7 20 20 ENE 12 19 29.90 1013 10 16 0.00 0.00
6:53 pm 18:53 Mostly Cloudy 59 15 22 -5.6 24 24 NE 12 19 29.93 1014 10 16 0.00 0.00
7:53 pm 19:53 Mostly Cloudy 55 12.8 23 -5 29 29 NNE 9 15 29.95 1014 10 16 0.00 0.00
8:53 pm 20:53 Mostly Cloudy 53 11.7 24 -4.4 32 32 N 6 9 29.96 1014 10 16 0.00 0.00
9:53 pm 21:53 Partly Cloudy 52 11.1 24 -4.4 34 34 NNE 8 13 29.96 1015 10 16 0.00 0.00
10:53 pm 22:53 Partly Cloudy 51 10.6 24 -4.4 35 35 NE 7 11 29.95 1014 10 16 0.00 0.00
11:53 pm 23:53 Mostly Clear 49 9.4 24 -4.4 38 38 E 5 7 29.96 1015 10 16 0.00 0.00

Powered by AerisWeather